Tracking 18624 objects as of 27-April-2017
HD Live streaming from Space Station
objects crossing your sky now

COSMOS 2251 DEB

Track COSMOS 2251 DEB now!
10-day predictions


NORAD ID: 34544
Int'l Code: 1993-036UE
Perigee: 780.6 km
Apogee: 1,369.1 km
Inclination: 73.9 °
Period: 106.6 minutes
Semi major axis: 7445 km
RCS: 0.0085 m2 (small)
Launch date: June 16, 1993
Source: Commonwealth of Independent States (former USSR) (CIS)
Launch site: PLESETSK MISSILE AND SPACE COMPLEX (PKMTR)

Note: This is SATELLITE DEBRIS
Your satellite tracking list
Your tracking list is empty





NASA's NSSDC Master Catalog

Two Line Element Set (TLE):
1 34544U 93036UE  17115.77221164 +.00000286 +00000-0 +28892-3 0  9994
2 34544 073.9183 246.7691 0395206 137.2962 348.4363 13.51231954402633
Source of the keplerian elements: AFSPC